{"data":{"norad_id":65669,"epoch":"2026-09-20T13:37:02.235072Z","epoch_age_seconds":102935,"freshness":"FRESH","line1":"1 65669U 25211T   26263.56738698  .00016371  00000+0  50824-3 0  9993","line2":"2 65669  97.2849 303.7995 0000855  83.9039 276.2301 15.33450667 56528","mean_motion":15.33450667,"eccentricity":8.55e-5,"inclination_deg":97.2849,"raan_deg":303.7995,"arg_perigee_deg":83.9039,"mean_anomaly_deg":276.2301,"bstar":0.00050824,"rev_number":5652,"period_min":93.905857618307,"perigee_km":464.94118031182,"apogee_km":466.11144673844,"semimajor_km":6843.6633135251,"source":"CELESTRAK","updated_at":"2026-09-21T09:00:35.682721Z"}}